Regional Weather Roundup
Issued by NWS

Home | Current Version | Previous Version | Text Only | Print | Product List | Glossary On
Versions: 1 2 3 4 5 6 7 8 9 10 11 12 13 14 15 16 17 18 19 20 21 22 23 24 25 26 27 28 29 30 31 32 33 34 35 36 37 38 39 40 41 42 43 44 45 46 47 48 49 50
000
ASUS45 KREV 121810
RWRNV
NEVADA REGIONAL WEATHER ROUNDUP
NATIONAL WEATHER SERVICE RENO NV
1000 AM PST FRI FEB 12 2016

NOTE: "FAIR" INDICATES FEW OR NO CLOUDS BELOW 12,000 FEET WITH NO
SIGNIFICANT WEATHER AND/OR OBSTRUCTIONS TO VISIBILITY.

NVZ001-003-004-121900-
WESTERN NEVADA

CITY           SKY/WX    TMP DP  RH WIND       PRES   REMARKS
RENO           PTSUNNY   42  32  67 CALM      30.34S
6HR MIN TEMP:  34; 6HR MAX TEMP:  42;

CARSON CITY    FAIR      45  32  61 CALM      30.34F
MINDEN         FAIR      43  32  65 CALM      30.35S
SLIDE MTN        N/A     37  10  32 W21         N/A
PYRAMID LAKE     N/A     45 N/A N/A NE2         N/A
FALLON         PTSUNNY   46  37  71 CALM      30.33S
6HR MIN TEMP:  30; 6HR MAX TEMP:  46;

LOVELOCK       CLOUDY    40  32  73 W3        30.33S
6HR MIN TEMP:  26; 6HR MAX TEMP:  40;

HAWTHORNE      SUNNY     45  36  70 CALM      30.35S
$$

NVZ002-CAZ072-073-121900-
NORTHERN AND CENTRAL SIERRA

CITY           SKY/WX    TMP DP  RH WIND       PRES   REMARKS
S. LAKE TAHOE  MOSUNNY   42  27  55 NE9       30.37S
6HR MIN TEMP:  25; 6HR MAX TEMP:  42;

TRUCKEE        SUNNY     30  25  80 CALM      30.38S
SQUAW VLY 8000   N/A     43  14  31 SW6         N/A
SUSANVILLE     SUNNY     45  34  65 CALM      30.32F
BLUE CANYON    SUNNY     58  15  18 SE7       30.33F
MAMMOTH LAKES  FAIR      41  27  56 SE3       30.40S
BRIDGEPORT     FAIR      40  19  43 CALM      30.36F
$$

NVZ030-031-036-121900-
NORTHERN NEVADA

CITY           SKY/WX    TMP DP  RH WIND       PRES   REMARKS
ELKO           PTSUNNY   20  14  77 CALM      30.42S
6HR MIN TEMP:   8; 6HR MAX TEMP:  20;

WINNEMUCCA     PTSUNNY   42  30  62 NE10      30.33F
6HR MIN TEMP:  26; 6HR MAX TEMP:  42;

WENDOVER       CLOUDY    28  25  86 CALM      30.44F
$$

NVZ035-037-121900-
CENTRAL NEVADA

CITY           SKY/WX    TMP DP  RH WIND       PRES   REMARKS
ELY            MOSUNNY   29  17  61 S16       30.37S
6HR MIN TEMP:  15; 6HR MAX TEMP:  29;

EUREKA           N/A     27  19  72 CALM      30.38S
6HR MIN TEMP:   8; 6HR MAX TEMP:  27;

$$

NVZ013-014-121900-
SOUTH CENTRAL NEVADA

CITY           SKY/WX    TMP DP  RH WIND       PRES   REMARKS
TONOPAH        MOSUNNY   43  30  60 CALM      30.36S
6HR MIN TEMP:  28; 6HR MAX TEMP:  43;

$$

NVZ017-020-022-121900-
SOUTHERN NEVADA

CITY           SKY/WX    TMP DP  RH WIND       PRES   REMARKS
LAS VEGAS      MOSUNNY   62  24  23 CALM      30.24S
6HR MIN TEMP:  47; 6HR MAX TEMP:  62;

N. LAS VEGAS   SUNNY     61  24  24 CALM      30.27F
6HR MIN TEMP:  44; 6HR MAX TEMP:  61;

NELLIS AFB     SUNNY     55  28  36 CALM      30.27F
6HR MIN TEMP:  38; 6HR MAX TEMP:  55;

HENDERSON      SUNNY     63  25  23 CALM      30.29S
6HR MIN TEMP:  42; 6HR MAX TEMP:  64;

MERCURY        SUNNY     61  23  23 SE3       30.28S
6HR MIN TEMP:  37; 6HR MAX TEMP:  63;

$$



USA.gov is the U.S. government's official web portal to all federal, state and local government web resources and services.